Weather in Novovyatsk

Russia / Kirov Oblast     58°30′31″N   49°35′40″E
temp.,
°C
wind,
m/s
gust,
m/s
humid.,
%
clouds,
%
prec.,
mm/h
press.,
hPa
HPBL,
m
23 april, fri
fri2300:00+5ssw2496100 0.0 1022113
03:00+3s23966 0.0 102348
06:00+5s36905 0.0 1024164
09:00+10ssw34655 0.0 1024746
12:00+12s345470 0.0 10241592
15:00+11s3567100 0.1 1024451
18:00+10se247082 0.0 1023101
21:00+7se347564 0.0 102347
24 april, sat
sat2400:00+7se379070 0.0 1022178
03:00+7se41089100 0.1 1021289
06:00+6se51086100 0.0 1020480
09:00+9ese6968100 0.0 1019833
12:00+10ese6860100 0.0 10161293
15:00+9ese5872100 0.0 10151009
18:00+7ese5984100 0.1 10131089
21:00+6ese4791100 0.6 1011964
25 april, sun
sun2500:00+6ese4893100 0.1 1009602
03:00+6ese5994100 0.3 1006957
06:00+5ese61094100 0.5 1003945
09:00+5ese61195100 1.3 1001978
12:00+5ese61196100 2.6 10001026
15:00+5sse4890100 2.8 1001673
18:00+4s4688100 0.1 1000548
21:00+2ssw4898100 0.4 1001485
26 april, mon
mon2600:00+1sw4998100 0.8 1000497
03:000wsw51398100 2.3 1001556
06:000wsw71598100 3.2 1003751
09:00+1wsw81598100 5.8 1006905
12:00+5wsw71281100 0.8 10071301
15:00+7wsw7126783 1.0 10091585
18:00+5wsw510735 0.1 1010506
21:00+1sw38895 0.1 1010134
27 april, tue
tue2700:000sw369196 0.0 1011108
03:00−1ssw23912 0.0 101048
06:00+2s127994 0.0 100992
09:00+6se3566100 0.0 1008645
12:00+4ese5786100 0.7 1006569
15:00+8sse5974100 1.4 10021273
18:00+3s4686100 1.1 1001868
21:00+2sw4898100 1.4 1000412